Content
SEND FEEDBACK

Daily
Averages
Monthly
Summary
Indonesia

HASANUDIN, INDONESIA


Home > Asia > Indonesia
Elevation: 46 feet     Latitude: 05 04S     Longitude: 119 33E

WEATHER
 
SELECT A DAY
Number of Records: 196,432;   Date Range: 9/17/97 - 8/10/14
 
SHARE

PRINT THIS DATA

[ ← Previous Day ]
WEATHER ALMANAC - JANUARY 6, 2013
[ Next Day → ]
[ °C ]   °F
Weather ElementAverageHighLow
Temperature79 °F87.8 °F (1:15 pm)73.4 °F (10:00 pm)
Dewpoint77.9 °F82.4 °F (10:30 am)73.4 °F (10:00 pm)
Humidity96.8 %100 % (12:30 am)75 % (2:00 pm)
Barometer27.81 in29.86 in (9:30 pm) (7:00 pm)
Wind Speed6.1 mph16.1 mph (6:04 pm)
Wind Gust28.8 mph (6:00 pm)
Weather ElementAverage
Visibility3.4 mi
Wind DirectionSSE (170.9 °)

Weather ElementTotal
Precipitation---
Cooling Degree Days15.6 (Base 65)
Growing Degree Days30.6 (Base 50)
Averaged from 74 records on January 6, 2013
WEATHER CONDITIONS BREAKOUT
WIND DIRECTION BREAKOUT
WEATHER BY HOUR - JANUARY 6, 2013
[ °C ]   °F
Local TimeTemperatureDewpointHumidityBarometerVisibilityWind DirectionWind SpeedGust SpeedPrecipitationEventsConditions
12:30 AM77.0 °F77.0 °F100 %29.77 in5.0 miVariable2.3 mphPartly Cloudy
1:00 AM77.0 °F77.0 °F100 %29.74 in5.0 miVariable2.3 mphPartly Cloudy
1:30 AM77.0 °F77.0 °F100 %29.74 inEast (80°)3.5 mph
1:57 AM77.0 °F77.0 °F100 %29.74 in3.1 miENE (70°)4.6 mphRainLight Rain
2:00 AM76.0 °F76.0 °F100 %29.74 in3.0 miENE (60°)2.3 mphRainLight Rain
2:00 AM77.0 °F77.0 °F100 %29.74 in3.1 miENE (70°)4.6 mphRainLight Rain
2:30 AM77.0 °F77.0 °F100 %29.71 in3.1 miNE (50°)3.5 mphRainLight Rain
3:00 AM77.0 °F77.0 °F100 %29.71 in3.1 miVariable2.3 mphRainLight Rain
3:30 AM75.2 °F75.2 °F100 %29.71 in3.1 miNE (50°)4.6 mphRainLight Rain
4:00 AM75.2 °F75.2 °F100 %29.74 in4.3 miVariable2.3 mphScattered Clouds
4:30 AM77.0 °F77.0 °F100 %29.74 in4.3 miNE (50°)3.5 mphScattered Clouds
5:00 AM77.0 °F77.0 °F98 %29.74 in4.0 miEast (100°)4.6 mphPartly Cloudy
5:00 AM77.0 °F77.0 °F100 %29.74 in4.3 miEast (90°)4.6 mphScattered Clouds
5:30 AM77.0 °F77.0 °F100 %29.74 in4.3 miENE (70°)3.5 mphScattered Clouds
6:00 AM77.0 °F77.0 °F100 %29.74 in5.0 miENE (70°)5.8 mphScattered Clouds
6:17 AM77.0 °F77.0 °F100 %29.77 in1.9 miNE (50°)3.5 mphRainRain
6:20 AM77.0 °F77.0 °F100 %0.0 mi3.5 (2013°)0.00 inHeavy Rain20
6:30 AM77.0 °F77.0 °F100 %1.9 miNorth (360°)6.9 mphRainRain
7:00 AM77.0 °F77.0 °F100 %29.77 in5.0 miESE (120°)4.6 mphPartly Cloudy
7:30 AM77.0 °F77.0 °F100 %29.77 in5.0 miENE (70°)3.5 mphPartly Cloudy
8:00 AM77.0 °F77.0 °F100 %29.80 in5.0 miENE (60°)4.6 mphPartly Cloudy
8:00 AM77.0 °F77.0 °F100 %29.80 in5.0 miNE (50°)5.8 mphScattered Clouds
8:30 AM77.0 °F77.0 °F100 %29.80 in5.0 miEast (90°)4.6 mphScattered Clouds
9:00 AM78.8 °F78.8 °F100 %29.80 in5.0 miENE (70°)5.8 mphPartly Cloudy
9:30 AM78.8 °F78.8 °F100 %29.80 in5.0 miENE (70°)4.6 mphRainLight Rain
10:00 AM80.6 °F80.6 °F100 %29.80 in5.0 miENE (70°)4.6 mphRainLight Rain
10:30 AM82.4 °F82.4 °F100 %29.80 in5.0 miNE (50°)5.8 mphScattered Clouds
11:00 AM83.0 °F82.0 °F97 %29.79 in5.0 miNE (50°)4.6 mphRainLight Rain
11:00 AM84.2 °F82.4 °F94 %29.77 in5.0 miENE (70°)4.6 mphScattered Clouds
11:30 AM84.2 °F82.4 °F94 %29.77 in5.0 miNE (40°)3.5 mphScattered Clouds
12:00 PM86.0 °F80.6 °F84 %29.77 in5.6 miNorth (350°)5.8 mphScattered Clouds
12:30 PM86.0 °F80.6 °F84 %29.77 in5.6 miNNW (340°)4.6 mphScattered Clouds
1:00 PM86.0 °F80.6 °F84 %29.74 in5.6 miNNW (330°)5.8 mphMostly Cloudy
1:15 PM87.8 °F80.6 °F79 %29.74 in3.1 miWNW (290°)9.2 mphRainLight Rain
1:23 PM86.0 °F80.6 °F84 %29.74 in4.3 miWNW (300°)8.1 mphRainLight Rain
1:30 PM86.0 °F80.6 °F84 %29.74 in5.0 miWNW (300°)8.1 mphRainLight Rain
1:42 PM87.8 °F80.6 °F79 %29.71 in5.0 miWNW (300°)6.9 mphScattered Clouds
2:00 PM86.0 °F80.6 °F84 %29.71 in4.3 miWNW (290°)9.2 mphRainLight Rain
2:00 PM87.0 °F80.0 °F75 %29.73 in5.0 miWNW (290°)6.9 mph
2:03 PM86.0 °F78.8 °F79 %29.71 in3.1 miWNW (290°)11.5 mphRainHeavy Rain
2:04 PM84.2 °F78.8 °F84 %29.71 in1.9 miWNW (290°)11.5 mphRainHeavy Rain
2:06 PM84.2 °F78.8 °F84 %29.71 in3.1 miWNW (300°)13.8 mphRainLight Rain
2:30 PM80.6 °F78.8 °F94 %29.71 in3.1 miNW (310°)6.9 mphRainLight Rain
2:35 PM80.6 °F80.6 °F100 %29.71 in1.9 miWest (270°)10.4 mph21.9 mphRainRain
3:00 PM78.8 °F78.8 °F100 %29.71 in2.5 miWSW (240°)5.8 mphRainLight Rain
3:30 PM80.6 °F80.6 °F100 %29.71 in3.7 miNW (310°)3.5 mphRainLight Rain
4:00 PM80.6 °F80.6 °F100 %29.71 in3.1 miEast (80°)4.6 mphRainLight Rain
4:14 PM78.8 °F78.8 °F100 %29.71 in1.9 miSE (140°)9.2 mphRainRain
4:30 PM78.8 °F78.8 °F100 %29.71 in1.9 miEast (100°)5.8 mphRainRain
5:00 PM79.0 °F79.0 °F100 %29.73 in2.0 miEast (100°)3.5 mphRainLight Rain
5:00 PM78.8 °F78.8 °F100 %29.71 in2.5 miESE (120°)3.5 mphRainLight Rain
5:26 PM78.8 °F78.8 °F100 %29.71 in3.1 miEast (90°)4.6 mphMostly Cloudy
5:30 PM78.8 °F78.8 °F100 %29.71 in3.1 miEast (90°)4.6 mphMostly Cloudy
5:53 PM78.8 °F78.8 °F100 %29.71 in3.1 miSE (130°)8.1 mph27.6 mphRainLight Rain
5:54 PM77.0 °F77.0 °F100 %29.71 in1.9 miSSE (150°)9.2 mph27.6 mphRainLight Rain
6:00 PM77.0 °F77.0 °F100 %29.74 in0.5 miSouth (170°)10.4 mph28.8 mphRainHeavy Rain
6:04 PM75.2 °F75.2 °F100 %29.74 in0.6 miWSW (240°)16.1 mph28.8 mphRainRain
6:07 PM75.2 °F75.2 °F100 %29.74 in1.9 miSW (230°)11.5 mphRainRain
6:30 PM75.2 °F75.2 °F100 %29.77 in1.2 miSW (220°)10.4 mphRainRain
7:00 PM77.0 °F77.0 °F100 %29.77 in2.5 miSouth (180°)5.8 mphRainLight Rain
7:30 PM77.0 °F77.0 °F100 %29.80 in2.5 miSE (130°)5.8 mphRainLight Rain
8:00 PM77.0 °F77.0 °F100 %29.81 in2.0 miSE (130°)4.6 mphRainLight Rain
8:00 PM77.0 °F77.0 °F100 %29.80 in2.5 miSSE (150°)3.5 mphRainLight Rain
8:30 PM78.8 °F78.8 °F100 %29.80 in2.5 miSSE (150°)5.8 mphRainLight Rain
9:00 PM77.0 °F77.0 °F100 %29.80 in3.7 miNE (40°)4.6 mphRainLight Rain
9:29 PM77.0 °F77.0 °F100 %29.83 in0.6 miVariable3.5 mph15.0 mphRainRain
9:30 PM77.0 °F77.0 °F100 %29.86 in0.6 miESE (110°)4.6 mph27.6 mphRainHeavy Rain
9:39 PM75.2 °F75.2 °F100 %2.5 miWNW (300°)16.1 mph28.8 mphRainRain
10:00 PM73.4 °F73.4 °F100 %2.5 miSW (230°)11.5 mphRainRain
10:10 PM73.4 °F73.4 °F100 %3.7 miSouth (180°)4.6 mphRainLight Rain
10:30 PM75.2 °F75.2 °F100 %29.83 in3.7 miESE (110°)6.9 mphRainLight Rain
11:00 PM75.0 °F75.0 °F99 %29.84 in4.0 miEast (90°)5.8 mphRainLight Rain
11:00 PM75.2 °F75.2 °F100 %29.83 in3.7 miEast (90°)6.9 mphRainLight Rain
11:30 PM75.2 °F75.2 °F100 %29.80 in3.7 miEast (100°)6.9 mphRainLight Rain
Hourly data recorded from WAAA, located miles away from Hasanudin, Indonesia







STORIES FROM OUR PARTNERS